Jaffrey, NH

2:20 PM EDT on September 25, 2017 (GMT -0400)
Jaffrey Airport-Silver Ranch

Weather History for KAFN - October, 2012

Change the Weather History Date:

Wednesday, October 10, 2012

  Actual Average Record
Temperature  
Mean Temperature 52 °F -  
Max Temperature 57 °F 58 °F 79 °F (2011)
Min Temperature 48 °F 37 °F 30 °F (2000)
Degree Days  
Heating Degree Days 12    
Growing Degree Days 2 (Base 50)    
Moisture  
Dew Point 48 °F    
Average Humidity 84    
Maximum Humidity 93    
Minimum Humidity 66    
Precipitation  
Precipitation 0.12 in - - ()
Sea Level Pressure  
Sea Level Pressure 29.91 in    
Wind  
Wind Speed 1 mph (SSW)    
Max Wind Speed 7 mph    
Max Gust Speed 17 mph    
Visibility 5 miles    
Events Rain    
Averages and records for this station are not official NWS values.
T = Trace of Precipitation, MM = Missing Value Source: NWS Daily Summary

Daily Weather History Graph

Daily Weather History Graph

Search for Another Location

Airport or City:

Trip Planner

Search our weather history database for the weather conditions in past years. The results will help you decide how hot, cold, wet, or windy it might be!

Date:

Astronomy

Oct. 10, 2012 Rise Set
Actual Time 6:55 AM EDT 6:13 PM EDT
Civil Twilight 6:27 AM EDT 6:41 PM EDT
Nautical Twilight 5:54 AM EDT 7:14 PM EDT
Astronomical Twilight 5:22 AM EDT 7:46 PM EDT
Moon 1:22 AM EDT (10/10) 3:20 PM EDT (10/10)
Length of Visible Light 12h 13m
Length of Day
11h 17m
Waning Crescent, 27% of the Moon is Illuminated
Oct 10
Waning Crescent
Oct 15
New
Oct 21
First Quarter
Oct 29
Full
Nov 6
Last Quarter

Hourly Weather History & Observations

Time (EDT) Temp. Dew Point Humidity Pressure Visibility Wind Dir Wind Speed Gust Speed Precip Events Conditions
12:52 AM 48.9 °F 42.1 °F 77% 30.16 in 10.0 mi Calm Calm - N/A   Overcast
1:52 AM 48.9 °F 41.0 °F 74% 30.15 in 10.0 mi Calm Calm - N/A   Overcast
2:27 AM 48.2 °F 42.8 °F 82% 30.12 in 10.0 mi Calm Calm - N/A   Overcast
2:52 AM 48.0 °F 42.1 °F 80% 30.14 in 10.0 mi Calm Calm - N/A   Overcast
3:52 AM 48.9 °F 43.0 °F 80% 30.12 in 10.0 mi Calm Calm - N/A   Overcast
4:52 AM 48.9 °F 43.0 °F 80% 30.11 in 10.0 mi Calm Calm - N/A   Overcast
5:52 AM 48.9 °F 43.0 °F 80% 30.09 in 9.0 mi Calm Calm - N/A   Overcast
6:27 AM 48.2 °F 44.6 °F 87% 30.06 in 3.0 mi Calm Calm - N/A   Overcast
6:52 AM 48.0 °F 44.1 °F 86% 30.08 in 3.0 mi Calm Calm - N/A   Overcast
7:20 AM 48.2 °F 44.6 °F 87% 30.05 in 1.0 mi Calm Calm - N/A   Overcast
7:40 AM 48.2 °F 44.6 °F 87% 30.05 in 0.8 mi Calm Calm - N/A   Overcast
7:52 AM 48.0 °F 44.1 °F 86% 30.07 in 0.8 mi Calm Calm - N/A   Overcast
8:22 AM 48.2 °F 44.6 °F 87% 30.04 in 1.0 mi Calm Calm - 0.01 in Rain Light Rain
8:31 AM 48.2 °F 44.6 °F 87% 30.04 in 1.2 mi Calm Calm - 0.01 in Rain Light Rain
8:49 AM 48.2 °F 46.4 °F 93% 30.03 in 1.5 mi Calm Calm - 0.01 in   Overcast
8:52 AM 48.9 °F 46.0 °F 90% 30.06 in 1.5 mi Calm Calm - 0.01 in   Overcast
9:08 AM 50.0 °F 46.4 °F 87% 30.03 in 1.2 mi Calm Calm - 0.00 in Rain Light Rain
9:26 AM 50.0 °F 46.4 °F 87% 30.02 in 1.5 mi Variable 3.5 mph - 0.00 in Rain Light Rain
9:39 AM 51.8 °F 46.4 °F 82% 30.02 in 3.0 mi Calm Calm - 0.00 in Rain Light Rain
9:52 AM 51.1 °F 48.0 °F 89% 30.03 in 3.0 mi Calm Calm - 0.00 in Rain Light Rain
10:02 AM 51.8 °F 48.2 °F 88% 30.00 in 2.0 mi Variable 3.5 mph - 0.00 in   Overcast
10:52 AM 52.0 °F 48.9 °F 89% 30.00 in 3.0 mi Calm Calm - 0.00 in Rain Light Rain
12:01 PM 53.6 °F 48.2 °F 82% 29.93 in 7.0 mi Variable 4.6 mph - 0.00 in Rain Light Rain
12:42 PM 53.6 °F 48.2 °F 82% 29.91 in 1.8 mi Variable 4.6 mph - 0.01 in Rain Light Rain
12:50 PM 53.6 °F 48.2 °F 82% 29.90 in 2.5 mi Calm Calm - 0.01 in Rain Light Rain
12:52 PM 54.0 °F 50.0 °F 86% 29.92 in 2.5 mi Calm Calm - 0.01 in Rain Light Rain
1:07 PM 53.6 °F 50.0 °F 88% 29.88 in 4.0 mi Variable 3.5 mph - 0.01 in Rain Light Rain
1:15 PM 53.6 °F 50.0 °F 88% 29.88 in 4.0 mi Calm Calm - 0.01 in Rain Light Rain
1:29 PM 55.4 °F 50.0 °F 82% 29.86 in 2.5 mi Calm Calm - 0.02 in Rain Light Rain
1:39 PM 55.4 °F 50.0 °F 82% 29.85 in 4.0 mi Variable 3.5 mph - 0.02 in Rain Light Rain
1:52 PM 55.0 °F 51.1 °F 86% 29.86 in 4.0 mi Variable 4.6 mph - 0.02 in Rain Light Rain
2:03 PM 55.4 °F 51.8 °F 88% 29.84 in 2.0 mi Calm Calm - 0.01 in Rain Light Rain
2:22 PM 55.4 °F 51.8 °F 88% 29.82 in 4.0 mi Variable 4.6 mph - 0.02 in Rain Light Rain
2:52 PM 57.0 °F 52.0 °F 83% 29.83 in 7.0 mi Variable 6.9 mph - 0.02 in Rain Light Rain
3:52 PM 57.0 °F 53.1 °F 87% 29.81 in 4.0 mi Calm Calm - 0.02 in Rain Light Rain
4:08 PM 57.2 °F 53.6 °F 88% 29.78 in 1.0 mi Calm Calm - 0.02 in Rain Rain
4:17 PM 57.2 °F 53.6 °F 88% 29.78 in 1.5 mi South 3.5 mph - 0.03 in Rain Light Rain
4:24 PM 57.2 °F 53.6 °F 88% 29.77 in 3.0 mi Calm Calm - 0.03 in Rain Light Rain
4:34 PM 57.2 °F 53.6 °F 88% 29.77 in 3.0 mi South 3.5 mph - 0.03 in   Overcast
4:37 PM 57.2 °F 53.6 °F 88% 29.77 in 2.5 mi Calm Calm - 0.03 in Rain Light Rain
4:52 PM 57.0 °F 53.1 °F 87% 29.79 in 7.0 mi Calm Calm - 0.03 in Rain Light Rain
5:04 PM 57.2 °F 53.6 °F 88% 29.76 in 10.0 mi Calm Calm - 0.00 in   Overcast
5:37 PM 57.2 °F 53.6 °F 88% 29.75 in 10.0 mi Calm Calm - 0.00 in   Overcast
5:52 PM 57.9 °F 53.1 °F 84% 29.76 in 10.0 mi Calm Calm - 0.00 in   Overcast
6:19 PM 57.2 °F 53.6 °F 88% 29.74 in 10.0 mi SSW 3.5 mph - N/A   Overcast
6:52 PM 57.9 °F 53.1 °F 84% 29.76 in 10.0 mi SSW 6.9 mph - N/A   Mostly Cloudy
7:04 PM 57.2 °F 53.6 °F 88% 29.74 in 10.0 mi SW 5.8 mph - N/A   Overcast
7:15 PM 57.2 °F 51.8 °F 82% 29.74 in 10.0 mi Variable 6.9 mph - N/A   Overcast
7:41 PM 57.2 °F 51.8 °F 82% 29.74 in 10.0 mi Variable 4.6 mph - N/A   Scattered Clouds
7:52 PM 57.0 °F 51.1 °F 81% 29.76 in 10.0 mi Variable 4.6 mph - N/A   Scattered Clouds
8:52 PM 55.0 °F 48.0 °F 77% 29.77 in 10.0 mi Variable 3.5 mph - N/A   Clear
9:52 PM 54.0 °F 46.9 °F 77% 29.80 in 10.0 mi Variable 5.8 mph - N/A   Mostly Cloudy
10:52 PM 52.0 °F 42.1 °F 69% 29.82 in 10.0 mi WNW 6.9 mph 17.3 mph 0.01 in   Scattered Clouds
11:52 PM 51.1 °F 39.9 °F 66% 29.83 in 10.0 mi Variable 4.6 mph - N/A   Overcast